Torna al catalogo

THORAD AGENA D DEB

AttivoLEO
NORAD 4919·DEBRIS·🇺🇸 United States

Lanciato Apr 8, 1970 da Vandenberg Space Force Base

Loading…

Prossimi Passaggi

TLE

Source: Space-Track
1  4919U 70025FR  26221.82608267  .00000976  00000-0  47991-3 0  9994
2  4919 100.0609 330.1426 0038188 307.7683  52.0032 14.20151281858055

Traccia THORAD AGENA D DEB in tempo reale con AllMySat

Download on the App Store